Wind_Speed
20 19 19 19 18 18 18 17 16 15 15 15 14 14 13 13 12 12 12 11 11 11 11 10 9 8 7 7 6 5 5 5 4 3 3 3 3 3 3 3 3 3 3
22 21 21 21 20 20 19 18 17 16 16 16 16 15 15 14 14 13 13 13 13 13 13 12 11 11 9 9 8 7 6 5 5 5 4 4 4 4 4 4 4 4 4
23 23 23 23 22 21 21 20 19 18 17 17 17 17 16 16 15 15 14 14 14 14 14 13 13 12 11 10 10 9 8 7 7 6 6 5 5 5 5 5 5 5 5
25 25 25 24 24 24 23 22 21 20 19 19 18 18 18 17 17 17 16 16 16 16 16 15 15 14 13 12 11 11 10 9 8 8 7 7 6 6 6 7 7 6 6
26 27 26 26 26 25 25 24 24 23 22 21 20 19 19 19 19 18 17 17 18 18 17 17 16 15 15 14 13 12 12 11 10 10 9 9 8 8 7 8 8 7 7
27 28 28 28 27 27 27 26 26 25 25 23 23 22 20 20 20 19 19 18 19 19 19 18 18 17 16 15 15 14 13 13 12 12 11 10 10 10 10 10 9 8 8
28 28 29 29 29 29 28 27 27 27 26 25 24 24 23 22 22 21 20 20 20 20 19 19 19 18 18 17 16 16 15 15 14 14 12 12 12 13 12 12 11 11 10
30 30 30 30 31 30 30 29 29 29 28 27 26 26 25 24 24 24 23 21 20 20 20 20 20 20 19 18 17 17 17 16 16 16 14 14 14 14 13 13 13 13 12
32 32 32 32 32 32 31 31 30 30 30 29 28 27 26 26 25 25 24 23 22 22 22 22 21 21 20 19 19 18 18 18 17 18 17 17 17 16 15 14 15 14 14
34 34 34 34 33 34 33 32 32 31 31 31 30 30 29 28 27 27 26 25 24 25 24 24 23 22 22 21 20 20 20 20 19 19 19 19 19 19 17 17 17 17 17
36 35 36 35 34 34 34 34 34 33 33 32 32 32 31 30 29 29 28 27 27 27 27 26 24 24 24 23 22 22 22 22 22 21 21 21 21 20 20 19 19 19 19
37 37 37 37 36 36 36 35 35 35 34 34 34 33 33 32 31 30 30 29 29 29 29 29 27 26 26 25 25 25 24 24 24 24 23 23 23 23 23 22 21 21 21
38 38 38 38 38 38 37 36 37 37 36 35 35 34 34 33 32 32 32 31 31 31 31 30 29 28 28 27 26 27 26 26 26 26 25 25 25 25 25 24 23 23 23
39 39 39 38 39 39 38 38 37 37 37 37 36 36 35 34 34 34 33 32 32 32 32 31 30 29 30 29 29 28 28 28 28 28 27 28 28 28 27 26 25 24 24
40 40 40 39 40 40 40 40 39 38 38 38 37 37 36 36 35 35 34 34 34 34 34 33 32 31 31 30 30 30 30 30 30 30 30 30 30 29 28 28 27 26 26
39 40 40 41 41 41 42 41 41 41 40 40 39 39 38 38 37 37 36 35 35 35 35 34 33 33 33 32 32 32 32 32 32 31 31 32 32 31 30 30 29 29 29
39 40 41 42 42 43 43 43 43 42 42 41 40 40 40 40 39 39 38 37 37 37 36 35 35 35 34 34 34 34 34 34 33 33 33 34 33 33 33 32 32 31 31
39 39 41 42 43 43 43 43 44 43 43 43 42 42 42 41 41 40 40 39 39 39 38 38 38 37 36 36 36 36 36 36 36 35 36 36 36 35 35 35 34 33 33
38 39 40 42 42 43 43 44 44 44 44 45 44 43 43 44 43 43 42 41 40 40 40 40 40 39 38 38 38 38 38 37 38 38 38 39 39 38 38 37 36 36 35
38 39 40 42 43 44 44 44 45 46 46 46 46 45 45 45 45 45 44 43 42 42 41 41 42 41 40 40 40 40 40 40 40 40 41 41 42 42 41 39 39 38 37
38 40 40 41 42 44 44 45 45 46 47 48 48 48 47 47 46 46 46 45 44 44 44 44 44 43 42 42 42 43 42 42 41 42 42 43 44 44 43 42 42 41 40
38 39 41 42 43 44 45 45 46 47 48 48 48 49 49 49 48 48 47 47 46 45 45 46 46 45 45 44 44 44 44 44 43 43 44 45 45 45 45 44 43 43 42
38 38 40 41 43 44 45 46 47 48 49 50 50 50 50 50 51 49 48 48 47 47 47 47 47 47 47 46 46 46 47 47 46 45 46 45 45 45 44 44 45 45 44
37 38 39 41 42 43 44 45 46 48 50 51 51 51 51 52 52 52 51 50 49 49 49 49 48 49 49 48 48 48 49 49 48 48 47 46 45 45 45 46 46 44 45
36 37 39 41 42 43 45 46 46 47 49 50 51 52 52 52 53 53 53 52 50 50 50 51 50 51 51 51 50 50 50 50 49 48 47 47 46 46 46 46 46 46 46
36 37 39 40 41 43 43 45 46 47 48 49 50 51 51 51 52 52 53 52 51 51 50 51 52 52 51 52 52 52 51 49 49 48 48 47 47 47 47 48 48 47 47
Wind_Direction
235 233 232 231 230 229 229 228 230 231 231 230 228 225 225 226 225 226 228 229 231 231 231 231 233 233 235 239 244 244 244 247 248 244 252 253 245 262 251 237 236 237 240
237 235 234 234 234 233 232 232 231 232 234 233 231 229 228 228 229 231 233 233 233 232 230 232 232 234 238 240 242 242 244 248 248 247 252 254 255 263 266 259 250 245 245
238 237 236 235 235 235 235 235 234 233 234 234 233 233 232 230 231 233 235 236 234 234 233 235 235 235 238 241 240 239 242 246 248 248 251 255 259 262 264 262 255 252 249
239 238 238 237 236 236 235 236 236 235 234 235 235 234 233 233 233 234 237 237 236 235 236 237 236 236 238 241 240 239 242 244 246 247 251 256 261 262 261 259 255 255 253
240 239 238 239 238 237 237 237 238 238 236 237 236 235 234 234 235 236 238 239 237 237 238 239 238 237 239 239 240 240 242 244 246 246 248 254 261 263 259 256 256 256 257
242 241 240 240 240 239 240 239 239 239 239 240 239 237 236 236 237 237 239 239 238 237 238 239 239 238 239 239 240 240 243 244 247 248 247 253 259 262 259 255 256 254 260
243 242 241 241 241 240 241 241 241 241 241 242 242 241 239 239 239 239 241 241 239 238 239 240 240 240 240 242 244 243 243 243 246 246 247 252 257 261 257 255 254 257 262
243 242 242 241 241 241 241 242 242 242 242 243 242 241 241 241 241 241 242 241 240 240 240 241 243 242 243 243 245 245 245 245 245 246 247 250 253 253 253 254 256 257 260
242 242 242 242 242 242 242 242 242 241 241 243 243 243 241 240 241 241 242 243 241 241 241 243 244 243 244 244 245 245 245 245 246 247 248 250 251 253 253 252 254 257 260
243 242 242 242 242 241 241 242 242 242 242 243 244 244 243 242 242 242 243 243 242 241 242 244 243 244 244 244 246 246 246 246 248 249 249 250 251 253 254 253 253 255 258
243 242 242 241 242 242 242 242 243 243 244 244 244 244 244 244 243 243 242 243 243 243 243 244 245 246 245 244 246 247 248 248 249 250 250 251 254 254 254 257 258 256 256
244 243 242 242 242 243 244 244 243 243 244 244 244 244 244 244 245 244 243 244 244 244 244 245 246 249 247 246 247 248 249 250 250 251 252 254 256 258 257 259 260 258 260
243 243 242 243 243 243 244 244 244 244 244 245 245 245 245 245 246 245 245 246 245 245 245 245 247 248 247 246 247 248 250 251 251 252 254 255 257 259 260 260 261 261 262
244 242 242 242 243 243 243 243 244 244 244 245 245 244 245 246 246 246 246 247 245 244 244 245 246 247 247 246 247 248 250 251 252 252 253 255 257 258 258 259 260 260 261
244 242 241 241 243 244 244 243 243 243 244 245 245 244 245 246 247 246 246 247 246 244 244 245 246 247 247 248 249 249 250 251 252 253 253 254 256 256 257 257 258 259 260
244 243 242 242 244 245 245 244 244 243 244 245 245 245 245 246 247 247 247 247 246 245 244 245 246 248 250 249 249 250 250 252 253 253 254 254 255 255 256 257 258 258 259
245 244 243 243 244 244 244 244 245 245 244 245 245 245 245 246 247 247 246 247 246 245 246 246 247 248 249 250 250 251 251 252 253 254 254 254 254 255 256 256 257 258 259
246 245 243 244 244 244 245 245 245 246 245 245 245 246 246 246 246 246 246 248 247 246 247 248 248 248 249 250 251 253 253 253 254 254 255 254 254 255 256 256 256 257 258
247 247 246 245 245 245 245 246 246 247 247 246 245 246 247 246 246 246 246 247 247 247 248 249 249 250 251 252 252 253 254 254 255 256 256 255 255 256 256 256 256 257 257
248 248 247 247 247 247 247 247 248 247 247 246 246 245 246 246 246 246 246 247 247 247 248 250 251 252 252 253 253 253 255 255 257 257 257 257 256 256 255 255 256 257 257
250 250 248 248 248 248 248 248 248 248 247 247 247 246 247 247 247 247 247 248 248 248 248 251 251 252 253 254 254 254 256 256 257 258 257 257 257 257 256 255 256 257 257
252 251 250 250 249 249 249 249 248 248 248 247 248 248 248 247 248 249 249 249 250 249 249 251 252 253 253 254 255 256 256 256 258 259 259 259 258 257 256 255 255 256 256
254 253 252 252 252 250 250 250 249 249 248 248 247 247 248 248 248 248 249 249 250 250 250 251 253 253 254 256 256 257 257 257 259 260 259 258 257 257 256 256 256 256 256
255 254 252 253 252 251 251 251 250 249 248 248 248 248 248 249 250 250 250 251 251 251 251 251 252 255 256 257 257 258 259 259 260 261 259 257 256 256 257 257 257 257 258
255 254 253 254 253 252 252 251 251 250 249 249 248 248 248 249 250 251 252 251 251 251 252 252 253 255 256 257 257 258 260 260 260 259 257 256 257 256 256 256 257 258 258
257 254 253 254 252 252 253 252 251 251 251 250 249 249 249 249 250 251 251 252 252 252 252 252 253 254 255 257 257 258 259 259 258 257 256 256 257 257 257 257 258 259 259
Height
5838 5839 5840 5841 5842 5844 5845 5846 5847 5848 5849 5850 5851 5852 5852 5853 5854 5855 5856 5856 5857 5858 5858 5859 5859 5859 5859 5860 5860 5860 5860 5860 5860 5860 5860 5860 5860 5859 5859 5859 5859 5859 5858
5835 5836 5837 5838 5840 5841 5842 5843 5844 5845 5846 5847 5848 5849 5850 5851 5852 5853 5853 5854 5855 5855 5856 5857 5857 5858 5858 5858 5858 5859 5859 5859 5859 5859 5859 5859 5859 5858 5858 5858 5858 5858 5858
5831 5832 5834 5835 5836 5837 5839 5840 5841 5843 5843 5845 5845 5846 5847 5848 5849 5850 5851 5851 5852 5853 5854 5854 5855 5856 5856 5856 5857 5857 5857 5857 5858 5858 5858 5857 5857 5857 5857 5857 5857 5857 5857
5827 5828 5830 5831 5833 5834 5835 5836 5838 5839 5840 5841 5842 5843 5844 5845 5846 5847 5848 5848 5849 5850 5851 5851 5852 5853 5854 5854 5855 5855 5855 5856 5856 5856 5856 5856 5856 5855 5856 5856 5856 5855 5855
5822 5824 5825 5827 5829 5830 5831 5832 5834 5835 5836 5837 5838 5839 5840 5842 5843 5844 5844 5845 5846 5847 5848 5849 5850 5850 5851 5852 5852 5853 5853 5854 5854 5854 5854 5854 5854 5854 5854 5854 5854 5854 5854
5817 5819 5820 5822 5824 5825 5827 5828 5829 5831 5832 5833 5834 5835 5837 5838 5839 5840 5841 5842 5843 5844 5845 5845 5846 5847 5848 5849 5850 5850 5851 5851 5852 5852 5852 5852 5852 5852 5852 5852 5853 5853 5853
5811 5813 5815 5817 5818 5820 5822 5823 5825 5826 5828 5829 5830 5831 5832 5834 5835 5836 5837 5838 5839 5840 5841 5842 5843 5844 5845 5846 5847 5847 5848 5849 5849 5849 5850 5850 5850 5850 5850 5850 5850 5851 5851
5805 5807 5809 5811 5813 5814 5816 5818 5819 5821 5823 5824 5825 5826 5828 5829 5830 5831 5832 5833 5835 5836 5837 5838 5839 5840 5841 5842 5843 5844 5845 5846 5846 5847 5847 5847 5847 5848 5847 5848 5848 5848 5849
5799 5801 5803 5805 5807 5808 5810 5812 5813 5815 5817 5819 5820 5821 5823 5824 5825 5826 5828 5829 5830 5831 5833 5834 5835 5836 5837 5838 5839 5840 5841 5842 5843 5843 5844 5844 5844 5845 5844 5845 5845 5846 5846
5791 5794 5796 5798 5800 5802 5804 5805 5807 5809 5811 5813 5814 5816 5817 5819 5820 5821 5822 5824 5826 5827 5828 5829 5830 5832 5833 5834 5835 5836 5837 5838 5839 5840 5840 5841 5841 5841 5841 5841 5842 5842 5843
5784 5786 5789 5791 5793 5795 5797 5799 5801 5803 5805 5806 5808 5810 5811 5813 5814 5816 5817 5819 5820 5821 5823 5824 5825 5827 5828 5829 5831 5832 5833 5834 5835 5835 5836 5836 5837 5837 5838 5838 5838 5838 5839
5776 5779 5781 5783 5786 5788 5790 5792 5794 5796 5798 5800 5801 5803 5805 5806 5808 5810 5811 5813 5814 5815 5817 5818 5820 5821 5823 5824 5826 5827 5828 5829 5830 5831 5831 5832 5832 5833 5833 5833 5834 5835 5835
5768 5770 5773 5775 5777 5780 5782 5785 5787 5789 5791 5793 5795 5796 5798 5800 5801 5803 5805 5806 5808 5809 5811 5812 5814 5816 5817 5819 5820 5821 5823 5824 5825 5826 5827 5827 5828 5828 5828 5829 5829 5830 5830
5759 5762 5764 5767 5769 5771 5774 5776 5779 5781 5783 5785 5787 5789 5791 5793 5795 5796 5798 5800 5801 5803 5804 5806 5808 5809 5811 5813 5814 5816 5817 5818 5819 5820 5821 5822 5822 5823 5823 5824 5824 5825 5825
5749 5752 5755 5758 5760 5763 5765 5768 5770 5773 5775 5777 5779 5782 5784 5785 5787 5789 5791 5793 5794 5796 5798 5799 5801 5803 5804 5806 5808 5809 5810 5811 5813 5814 5815 5816 5816 5817 5818 5818 5819 5820 5820
5740 5743 5746 5748 5751 5754 5756 5758 5761 5764 5766 5769 5771 5773 5775 5778 5779 5781 5783 5785 5787 5789 5790 5792 5794 5796 5797 5799 5800 5802 5803 5804 5806 5807 5808 5809 5810 5811 5811 5812 5813 5814 5814
5730 5733 5736 5739 5741 5744 5746 5749 5752 5755 5757 5760 5762 5764 5767 5769 5771 5773 5775 5777 5779 5781 5783 5785 5786 5788 5790 5791 5793 5794 5796 5797 5798 5799 5800 5802 5803 5803 5804 5805 5806 5807 5807
5720 5723 5726 5729 5731 5734 5737 5739 5742 5745 5748 5750 5753 5755 5758 5760 5762 5764 5766 5768 5770 5772 5775 5777 5778 5780 5781 5783 5785 5787 5788 5789 5790 5791 5792 5794 5794 5795 5796 5797 5798 5799 5800
5711 5713 5716 5719 5721 5724 5726 5729 5732 5735 5737 5740 5743 5745 5748 5750 5752 5755 5757 5759 5761 5763 5765 5768 5769 5771 5773 5775 5776 5778 5779 5780 5782 5783 5784 5785 5786 5787 5788 5789 5790 5791 5792
5701 5704 5706 5708 5711 5713 5716 5718 5721 5724 5726 5729 5732 5734 5737 5739 5742 5745 5747 5749 5752 5754 5756 5758 5760 5762 5764 5766 5767 5769 5770 5771 5772 5773 5774 5775 5776 5777 5778 5780 5781 5782 5784
5692 5694 5696 5698 5700 5703 5705 5707 5710 5712 5715 5718 5721 5723 5726 5728 5731 5734 5737 5739 5742 5744 5746 5748 5750 5752 5754 5756 5757 5759 5760 5761 5762 5763 5764 5765 5766 5767 5768 5769 5771 5773 5774
5681 5683 5685 5688 5690 5692 5694 5696 5699 5701 5703 5706 5709 5711 5714 5717 5720 5723 5726 5728 5731 5733 5735 5738 5740 5742 5744 5745 5747 5748 5750 5752 5752 5753 5753 5754 5755 5755 5757 5758 5760 5762 5764
5672 5673 5675 5676 5678 5680 5682 5684 5686 5689 5691 5694 5697 5699 5702 5705 5708 5711 5714 5716 5719 5722 5724 5727 5729 5731 5733 5734 5736 5738 5739 5740 5742 5743 5743 5743 5744 5744 5746 5748 5750 5751 5753
5662 5663 5665 5665 5667 5669 5671 5673 5674 5677 5679 5682 5684 5687 5690 5693 5695 5698 5701 5704 5707 5710 5713 5715 5717 5719 5721 5723 5724 5726 5727 5729 5730 5731 5732 5733 5734 5735 5736 5738 5739 5741 5743
5652 5653 5654 5655 5656 5658 5660 5661 5663 5665 5667 5669 5672 5675 5678 5680 5683 5686 5689 5691 5694 5697 5700 5703 5705 5707 5709 5711 5712 5714 5714 5716 5717 5718 5721 5722 5723 5724 5726 5727 5729 5730 5732
5642 5642 5644 5644 5645 5647 5648 5650 5651 5653 5654 5657 5659 5662 5665 5668 5670 5673 5676 5678 5681 5684 5687 5690 5692 5694 5696 5698 5700 5701 5702 5704 5705 5706 5708 5710 5712 5713 5715 5716 5718 5719 5721